�������l�o���
Date,Time,MP-1(��Sv/h),MP-2(��Sv/h),MP-3(��Sv/h),MP-4(��Sv/h),MP-5(��Sv/h),MP-6(��Sv/h),MP-7(��Sv/h),MP-8(��Sv/h),����,����(m/s),���J
2017/07/13,00:00,1.024,1.632,1.086,1.935,1.357,0.538,0.984,0.903,��쓌,2.6,��
2017/07/13,00:10,1.022,1.629,1.084,1.930,1.357,0.537,0.984,0.902,��,2.6,��
2017/07/13,00:20,1.021,1.632,1.086,1.933,1.357,0.540,0.982,0.904,��쐼,2.0,��
2017/07/13,00:30,1.021,1.632,1.087,1.935,1.357,0.536,0.984,0.902,��쐼,1.7,��
2017/07/13,00:40,1.020,1.628,1.086,1.933,1.357,0.538,0.985,0.904,��쐼,2.0,��
2017/07/13,00:50,1.020,1.632,1.086,1.933,1.355,0.538,0.983,0.904,�쐼,1.7,��
2017/07/13,01:00,1.022,1.629,1.084,1.933,1.357,0.541,0.982,0.903,��,1.5,�L
2017/07/13,01:10,1.021,1.632,1.085,1.933,1.357,0.540,0.984,0.903,���k��,0.6,��
2017/07/13,01:20,1.019,1.631,1.086,1.934,1.356,0.537,0.985,0.901,-,CALM,��
2017/07/13,01:30,1.020,1.630,1.087,1.934,1.357,0.540,0.985,0.902,-,CALM,��
2017/07/13,01:40,1.020,1.630,1.088,1.933,1.355,0.540,0.982,0.901,�k�k��,0.6,��
2017/07/13,01:50,1.019,1.628,1.088,1.935,1.356,0.538,0.983,0.905,-,CALM,��
2017/07/13,02:00,1.021,1.629,1.087,1.934,1.354,0.540,0.985,0.902,-,CALM,��
2017/07/13,02:10,1.022,1.630,1.086,1.934,1.357,0.539,0.985,0.904,�k��,0.8,��
2017/07/13,02:20,1.023,1.632,1.087,1.931,1.355,0.538,0.984,0.903,��,1.2,��
2017/07/13,02:30,1.022,1.632,1.087,1.931,1.356,0.538,0.984,0.903,���k��,1.1,��
2017/07/13,02:40,1.019,1.627,1.086,1.931,1.355,0.538,0.984,0.903,�k��,1.7,��
2017/07/13,02:50,1.020,1.629,1.085,1.935,1.354,0.539,0.983,0.901,���쐼,0.6,��
2017/07/13,03:00,1.020,1.630,1.087,1.933,1.356,0.540,0.984,0.904,-,CALM,��
2017/07/13,03:10,1.021,1.630,1.086,1.935,1.355,0.539,0.985,0.904,-,CALM,��
2017/07/13,03:20,1.020,1.628,1.087,1.934,1.355,0.540,0.984,0.904,��,0.9,��
2017/07/13,03:30,1.020,1.629,1.085,1.932,1.355,0.540,0.985,0.903,��,1.7,��
2017/07/13,03:40,1.023,1.631,1.086,1.935,1.358,0.539,0.985,0.902,��,1.9,��
2017/07/13,03:50,1.020,1.631,1.087,1.933,1.357,0.539,0.983,0.902,��쐼,1.5,��
2017/07/13,04:00,1.021,1.628,1.087,1.931,1.356,0.538,0.985,0.902,��쐼,1.2,��
2017/07/13,04:10,1.021,1.630,1.089,1.935,1.353,0.540,0.983,0.904,��,1.7,��
2017/07/13,04:20,1.021,1.630,1.087,1.930,1.357,0.539,0.983,0.904,��,2.5,��
2017/07/13,04:30,1.021,1.631,1.086,1.937,1.355,0.539,0.984,0.904,��쐼,1.4,��
2017/07/13,04:40,1.021,1.633,1.085,1.935,1.356,0.539,0.984,0.904,���쐼,1.2,��
2017/07/13,04:50,1.023,1.631,1.088,1.931,1.356,0.540,0.984,0.905,-,CALM,��
2017/07/13,05:00,1.023,1.631,1.087,1.933,1.354,0.539,0.984,0.903,-,CALM,��
2017/07/13,05:10,1.021,1.629,1.087,1.936,1.356,0.538,0.985,0.903,-,CALM,��
2017/07/13,05:20,1.019,1.631,1.087,1.932,1.355,0.539,0.983,0.903,-,CALM,��
2017/07/13,05:30,1.021,1.628,1.084,1.933,1.357,0.538,0.985,0.903,��,0.6,��
2017/07/13,05:40,1.021,1.630,1.087,1.934,1.353,0.539,0.985,0.902,�k��,1.2,��
2017/07/13,05:50,1.020,1.634,1.088,1.934,1.357,0.540,0.983,0.904,�k�k��,2.3,��
2017/07/13,06:00,1.022,1.631,1.086,1.934,1.359,0.540,0.985,0.904,�k�k��,3.5,��
2017/07/13,06:10,1.020,1.633,1.089,1.934,1.357,0.538,0.985,0.904,�k,4.8,��
2017/07/13,06:20,1.021,1.631,1.087,1.933,1.354,0.538,0.983,0.904,�k�k��,5.5,��
2017/07/13,06:30,1.019,1.633,1.088,1.933,1.356,0.541,0.984,0.903,�k�k��,6.0,��
2017/07/13,06:40,1.022,1.631,1.086,1.934,1.355,0.540,0.985,0.904,�k,5.5,��
2017/07/13,06:50,1.020,1.628,1.088,1.932,1.354,0.537,0.984,0.903,�k,5.2,��
2017/07/13,07:00,1.019,1.625,1.087,1.931,1.356,0.537,0.983,0.904,�k,4.4,��
2017/07/13,07:10,1.020,1.628,1.086,1.933,1.353,0.538,0.982,0.901,�k,4.9,��
2017/07/13,07:20,1.020,1.631,1.086,1.931,1.354,0.538,0.984,0.904,�k,5.9,��
2017/07/13,07:30,1.020,1.627,1.085,1.932,1.356,0.538,0.985,0.902,�k,5.8,��
2017/07/13,07:40,1.020,1.631,1.087,1.931,1.353,0.538,0.985,0.902,�k,5.5,��
2017/07/13,07:50,1.022,1.631,1.086,1.934,1.358,0.538,0.984,0.904,�k,6.3,��
2017/07/13,08:00,1.022,1.631,1.084,1.932,1.358,0.539,0.983,0.903,�k,5.8,��
2017/07/13,08:10,1.021,1.629,1.087,1.932,1.357,0.537,0.985,0.904,�k,6.8,��
2017/07/13,08:20,1.020,1.628,1.087,1.934,1.355,0.536,0.984,0.904,�k�k��,6.4,��
2017/07/13,08:30,1.020,1.629,1.086,1.934,1.356,0.537,0.985,0.904,�k�k��,6.2,��
2017/07/13,08:40,1.021,1.629,1.084,1.935,1.355,0.537,0.984,0.903,�k�k��,7.1,��
2017/07/13,08:50,1.020,1.630,1.086,1.934,1.355,0.537,0.983,0.902,�k,6.9,��
2017/07/13,09:00,1.023,1.627,1.084,1.935,1.357,0.535,0.984,0.902,�k�k��,6.6,��
2017/07/13,09:10,1.022,1.626,1.084,1.932,1.357,0.537,0.984,0.898,�k,5.3,��
2017/07/13,09:20,1.021,1.632,1.085,1.937,1.356,0.534,0.985,0.900,�k,6.1,��
2017/07/13,09:30,1.022,1.629,1.084,1.935,1.353,0.536,0.984,0.900,�k,5.9,��
2017/07/13,09:40,1.024,1.630,1.080,1.935,1.357,0.536,0.984,0.902,�k�k��,5.7,��
2017/07/13,09:50,1.023,1.631,1.083,1.935,1.357,0.535,0.984,0.903,�k,5.5,��
2017/07/13,10:00,1.020,1.631,1.080,1.934,1.358,0.533,0.984,0.901,�k�k��,6.1,��
2017/07/13,10:10,1.021,1.629,1.084,1.938,1.361,0.535,0.983,0.903,�k�k��,5.0,��
2017/07/13,10:20,1.022,1.630,1.083,1.935,1.357,0.536,0.983,0.901,�k�k��,4.9,��
2017/07/13,10:30,1.022,1.630,1.082,1.933,1.359,0.535,0.982,0.901,�k�k��,4.6,��
2017/07/13,10:40,1.019,1.629,1.084,1.938,1.359,0.536,0.983,0.903,�k�k��,4.5,��
2017/07/13,10:50,1.023,1.629,1.085,1.937,1.357,0.535,0.979,0.902,�k,3.3,��
2017/07/13,11:00,1.021,1.630,1.083,1.939,1.359,0.535,0.983,0.901,�k,2.5,�L
2017/07/13,11:10,1.020,1.624,1.080,1.938,1.360,0.535,0.982,0.901,�k,1.5,�L
2017/07/13,11:20,1.009,1.594,1.068,1.929,1.347,0.534,0.983,0.900,��쐼,0.6,�L
2017/07/13,11:30,0.995,1.564,1.055,1.898,1.297,0.527,0.974,0.896,���k��,0.9,�L
2017/07/13,11:40,0.981,1.549,1.044,1.861,1.265,0.517,0.957,0.883,�쐼,1.9,�L
2017/07/13,11:50,0.982,1.557,1.043,1.854,1.265,0.517,0.950,0.873,��,1.2,�L
2017/07/13,12:00,0.982,1.558,1.045,1.863,1.276,0.525,0.956,0.878,-,CALM,�L
2017/07/13,12:10,0.985,1.561,1.048,1.864,1.281,0.525,0.957,0.881,���쐼,1.7,��
2017/07/13,12:20,0.986,1.560,1.045,1.867,1.282,0.526,0.959,0.882,��,1.7,��
2017/07/13,12:30,0.985,1.563,1.049,1.866,1.286,0.526,0.958,0.884,�쓌,1.5,��
2017/07/13,12:40,0.987,1.569,1.048,1.867,1.286,0.525,0.962,0.881,�쓌,1.7,��
2017/07/13,12:50,0.987,1.566,1.047,1.864,1.284,0.524,0.961,0.884,�쓌,1.1,��
2017/07/13,13:00,0.988,1.570,1.047,1.867,1.288,0.524,0.959,0.885,���쓌,1.5,��
2017/07/13,13:10,0.988,1.569,1.049,1.865,1.286,0.524,0.961,0.886,���쓌,1.7,��
2017/07/13,13:20,0.987,1.571,1.049,1.869,1.287,0.524,0.960,0.886,���쓌,1.7,��
2017/07/13,13:30,0.986,1.568,1.049,1.867,1.289,0.523,0.962,0.883,�쓌,2.0,��
2017/07/13,13:40,0.986,1.570,1.048,1.866,1.287,0.522,0.961,0.884,�쓌,1.5,��
2017/07/13,13:50,0.988,1.568,1.048,1.864,1.288,0.524,0.961,0.886,�쓌,2.3,��
2017/07/13,14:00,0.989,1.569,1.046,1.866,1.285,0.523,0.962,0.885,�쓌,2.9,��
2017/07/13,14:10,0.987,1.570,1.046,1.866,1.287,0.523,0.962,0.885,�쓌,2.5,�L
2017/07/13,14:20,0.987,1.570,1.048,1.867,1.287,0.523,0.961,0.884,��쓌,3.3,�L
2017/07/13,14:30,0.982,1.567,1.046,1.861,1.287,0.522,0.961,0.884,��쓌,3.4,�L
2017/07/13,14:40,0.985,1.564,1.045,1.862,1.286,0.523,0.960,0.883,��쓌,3.6,�L
2017/07/13,14:50,0.985,1.567,1.046,1.863,1.286,0.524,0.961,0.884,��쓌,3.1,�L
2017/07/13,15:00,0.983,1.568,1.046,1.865,1.288,0.522,0.961,0.882,��,2.8,�L
2017/07/13,15:10,0.982,1.561,1.046,1.864,1.285,0.524,0.961,0.885,��쓌,3.3,�L
2017/07/13,15:20,0.982,1.562,1.045,1.862,1.282,0.524,0.960,0.884,��쓌,2.0,�L
2017/07/13,15:30,0.984,1.565,1.046,1.867,1.285,0.523,0.960,0.883,��,2.9,�L
2017/07/13,15:40,0.981,1.564,1.047,1.865,1.283,0.524,0.961,0.885,��,4.3,�L
2017/07/13,15:50,0.982,1.564,1.047,1.867,1.285,0.525,0.962,0.885,��,4.4,�L
2017/07/13,16:00,0.985,1.566,1.045,1.870,1.285,0.524,0.961,0.884,��,4.7,�L
2017/07/13,16:10,0.985,1.564,1.050,1.867,1.286,0.525,0.959,0.887,��,5.0,�L
2017/07/13,16:20,0.984,1.562,1.048,1.866,1.285,0.525,0.962,0.887,��쐼,4.7,�L
2017/07/13,16:30,0.984,1.563,1.048,1.868,1.287,0.523,0.964,0.887,��,4.1,�L
2017/07/13,16:40,0.984,1.561,1.049,1.864,1.283,0.525,0.960,0.886,��쐼,3.9,�L
2017/07/13,16:50,0.983,1.563,1.046,1.864,1.284,0.525,0.961,0.887,��쐼,3.4,��
2017/07/13,17:00,0.983,1.563,1.048,1.863,1.286,0.524,0.960,0.886,��,3.8,��
2017/07/13,17:10,0.983,1.563,1.049,1.864,1.285,0.523,0.960,0.884,��,4.8,��
2017/07/13,17:20,0.982,1.564,1.049,1.865,1.283,0.525,0.962,0.885,��,5.8,�L
2017/07/13,17:30,0.984,1.565,1.048,1.862,1.286,0.524,0.961,0.886,��,5.9,�L
2017/07/13,17:40,0.984,1.564,1.049,1.866,1.285,0.527,0.960,0.886,��,5.4,�L
2017/07/13,17:50,0.983,1.564,1.048,1.865,1.288,0.529,0.961,0.887,��,4.9,�L
2017/07/13,18:00,0.981,1.566,1.049,1.866,1.288,0.527,0.960,0.888,��,4.9,�L
2017/07/13,18:10,0.984,1.565,1.051,1.868,1.285,0.528,0.961,0.885,��,5.2,�L
2017/07/13,18:20,0.985,1.563,1.049,1.866,1.285,0.527,0.960,0.886,��,4.8,�L
2017/07/13,18:30,0.982,1.564,1.048,1.866,1.283,0.526,0.960,0.886,��,5.5,��
2017/07/13,18:40,0.982,1.563,1.050,1.863,1.282,0.527,0.959,0.886,��,5.4,��
2017/07/13,18:50,0.982,1.562,1.049,1.863,1.284,0.524,0.960,0.885,��,5.6,��
2017/07/13,19:00,0.978,1.563,1.048,1.861,1.281,0.526,0.960,0.885,��,5.7,��
2017/07/13,19:10,0.980,1.559,1.046,1.862,1.280,0.525,0.960,0.885,��,5.0,��
2017/07/13,19:20,0.979,1.563,1.045,1.860,1.281,0.524,0.959,0.883,��,4.7,��
2017/07/13,19:30,0.978,1.560,1.045,1.859,1.282,0.525,0.959,0.884,��,4.6,��
2017/07/13,19:40,0.977,1.560,1.048,1.861,1.280,0.523,0.959,0.885,��,3.6,��
2017/07/13,19:50,0.976,1.565,1.047,1.862,1.280,0.524,0.959,0.885,��쐼,2.9,��
2017/07/13,20:00,0.975,1.560,1.046,1.860,1.279,0.523,0.958,0.885,��,2.6,��
2017/07/13,20:10,0.979,1.562,1.046,1.862,1.281,0.524,0.958,0.884,��,3.1,��
2017/07/13,20:20,0.978,1.561,1.044,1.863,1.278,0.523,0.960,0.884,��,3.3,��
2017/07/13,20:30,0.980,1.559,1.047,1.861,1.281,0.523,0.960,0.885,��,3.4,��
2017/07/13,20:40,0.976,1.563,1.044,1.862,1.281,0.524,0.959,0.885,��,3.8,��
2017/07/13,20:50,0.976,1.559,1.046,1.862,1.280,0.522,0.957,0.884,��쓌,4.2,��
2017/07/13,21:00,0.976,1.560,1.046,1.864,1.280,0.523,0.961,0.884,��,3.9,��
2017/07/13,21:10,0.978,1.561,1.045,1.862,1.281,0.524,0.959,0.884,��,5.2,��
2017/07/13,21:20,0.978,1.559,1.045,1.861,1.278,0.523,0.958,0.885,��,5.8,��
2017/07/13,21:30,0.978,1.562,1.045,1.860,1.280,0.523,0.960,0.885,��,5.2,��
2017/07/13,21:40,0.978,1.561,1.046,1.860,1.280,0.525,0.959,0.885,��쐼,3.9,��
2017/07/13,21:50,0.979,1.563,1.046,1.863,1.278,0.523,0.959,0.886,��,3.7,��
2017/07/13,22:00,0.981,1.561,1.046,1.862,1.283,0.525,0.959,0.885,��쐼,3.1,��
2017/07/13,22:10,0.980,1.561,1.047,1.862,1.279,0.525,0.959,0.885,��,3.0,��
2017/07/13,22:20,0.981,1.561,1.045,1.859,1.280,0.524,0.958,0.885,��,3.7,��
2017/07/13,22:30,0.978,1.562,1.044,1.861,1.283,0.523,0.960,0.885,��,4.0,��
2017/07/13,22:40,0.977,1.563,1.045,1.862,1.277,0.524,0.958,0.883,��,4.3,��
2017/07/13,22:50,0.979,1.563,1.047,1.862,1.280,0.523,0.960,0.884,��,4.0,��
2017/07/13,23:00,0.980,1.563,1.045,1.862,1.280,0.523,0.958,0.884,��,3.7,��
2017/07/13,23:10,0.980,1.561,1.044,1.861,1.279,0.525,0.959,0.885,��,4.6,��
2017/07/13,23:20,0.981,1.563,1.046,1.860,1.280,0.526,0.958,0.884,��,4.7,��
2017/07/13,23:30,0.982,1.563,1.044,1.865,1.278,0.525,0.960,0.885,��쐼,3.7,��
2017/07/13,23:40,0.981,1.561,1.047,1.861,1.282,0.524,0.960,0.884,��쐼,2.5,��
2017/07/13,23:50,0.980,1.563,1.046,1.863,1.280,0.525,0.958,0.885,��쐼,2.0,��
